Regional Weather Roundup
Issued by NWS San Diego, CA

Home | Current Version | Previous Version | Text Only | Print | Product List | Glossary On
Versions: 1 2 3 4 5 6 7 8 9 10 11 12 13 14 15 16 17 18 19 20 21 22 23 24 25 26 27 28 29 30 31 32 33 34 35 36 37 38 39 40 41 42 43 44 45 46 47 48 49 50
000
ASUS46 KSGX 280604
RWRSGX

SAN DIEGO HOURLY WEATHER ROUNDUP
NATIONAL WEATHER SERVICE SAN DIEGO CA
1100 PM PDT TUE JUN 27 2017

NOTE: "FAIR" INDICATES FEW OR NO CLOUDS BELOW 12,000 FEET WITH NO
SIGNIFICANT WEATHER AND/OR OBSTRUCTIONS TO VISIBILITY.

CAZ042-043-060-061-PZZ750-775-280700-

GREATER SAN DIEGO AREA

CITY           SKY/WX    TMP DP  RH WIND       PRES   REMARKS
SAN DIEGO AP   PTCLDY    65  61  87 NW7       29.90R
NATIONAL CITY    N/A     66  62  87 NW1       29.90R
CHULA VISTA      N/A     65  61  89 CALM      29.80S
IMPERIAL BEACH PTCLDY    64  60  87 NW8       29.90R
BROWN FIELD    CLEAR     62  60  93 CALM      29.89R
MIRAMAR MCAS   PTCLDY    65  57  75 W6        29.89R
MONTGOMERY FLD CLEAR     66  60  81 NW3       29.89R
GILLESPIE FLD  FAIR      66  59  77 W5        29.89R

$$

NORTH SAN DIEGO COUNTY

CITY           SKY/WX    TMP DP  RH WIND       PRES   REMARKS
CAMP PENDLETON PTCLDY    59  57  93 CALM      29.88R
OCEANSIDE AP   MOCLDY    65  61  87 CALM      29.88R
OCEANSIDE HBR    N/A     64  61  90 CALM      29.90S
VISTA            N/A     64  58  81 CALM      29.86R
CARLSBAD       CLOUDY    64  61  90 S3        29.88S
DEL MAR          N/A     63  61  93 CALM      29.90R
LA JOLLA SCRIP   N/A     63  61  94 SW1       29.88R
FALLBROOK        N/A     63  63 100 CALM      29.88R
ESCONDIDO        N/A     67  60  77 CALM      29.87S
SAN MARCOS       N/A     64  59  84 CALM      29.88S
POWAY            N/A     64  58  81 CALM      29.88R

$$

EAST SAN DIEGO COUNTY

CITY           SKY/WX    TMP DP  RH WIND       PRES   REMARKS
RAMONA         CLEAR     62  53  72 CALM      29.91R
SANTEE LAKES     N/A     65  58  79 CALM      29.86R
LA MESA          N/A     65  60  84 CALM      29.80R
JAMUL            N/A     63  59  87 CALM      29.86R
DESCANSO N       N/A     57  33  39 NE6       29.78S
CAMPO            N/A     58  36  43 CALM      29.93R

$$

ORANGE COUNTY AND THE LOS ANGELES BASIN

CITY           SKY/WX    TMP DP  RH WIND       PRES   REMARKS
JOHN WAYNE AP  PTCLDY    64  61  90 SW3       29.87S
LAGUNA BEACH     N/A    N/A N/A N/A N3        29.82S
LAKE FOREST FR   N/A     64  51  63 CALM      29.73S
HUNTINGTON BCH   N/A     64  61  90 W3        29.88S
LOS ALAMITOS   FAIR      63  59  87 S3        29.87R
FULLERTON      CLEAR     67  61  81 SE6       29.86R
LONG BEACH     CLEAR     68  57  68 N3        29.87R
L.A. AP        PTCLDY    65  60  84 SW6       29.87R
L.A. DOWNTOWN    N/A     66  58  75 CALM      29.87

$$

THE INLAND EMPIRE

CITY           SKY/WX    TMP DP  RH WIND       PRES   REMARKS
CORONA         CLEAR     68  54  60 W6        29.88R
CHINO          CLEAR     68  51  54 W8        29.88R
ONTARIO        CLEAR     73  50  44 W8        29.87S
SAN BERNARDINO FAIR      78  42  27 CALM      29.88S
RIVERSIDE AP   CLEAR     72  50  45 W7        29.88R
MORENO VALLEY    N/A     75  38  25 CALM      28.01
MARCH ARB      CLEAR     70  44  37 CALM      29.89S
HORSETHIEF CYN   N/A     69  33  27 W3        29.84R
PERRIS           N/A     74  47  38 CALM      29.87S
HEMET EAST       N/A     73  23  15 CALM      29.87S
FRENCH VALLEY  FAIR      68  48  49 SE6       29.90S
TEMECULA         N/A     69  56  62 S2        29.93R

$$

SAN BERNARDINO AND RIVERSIDE COUNTY MOUNTAINS

CITY           SKY/WX    TMP DP  RH WIND       PRES   REMARKS
BIG BEAR AP    CLEAR     54  12  19 SW3       30.19S
PINE COVE        N/A     64   6  10 NW3       29.81S

$$

SOUTHERN DESERT INCLUDING THE COACHELLA VALLEY

CITY           SKY/WX    TMP DP  RH WIND       PRES   REMARKS
PALM SPRINGS   CLEAR     96  20   6 NW7G21    29.68R
THOUSAND PALMS   N/A     92  28  10 NW21      29.63R
PALM DESERT      N/A     90  38  16 CALM      27.34S
THERMAL        CLEAR     94  23   8 N18       29.62R
BLYTHE         CLEAR     90  34  13 S13       29.65R
IMPERIAL AP    CLEAR     88  30  12 W18       29.66R
EL CENTRO NAS  CLEAR     89  20   8 W16       29.69R
MEXICALI       CLEAR     91  18   6 W8        29.68R

$$

UPPER DESERT

CITY           SKY/WX    TMP DP  RH WIND       PRES   REMARKS
VICTORVILLE AP CLEAR     75  32  20 S9        29.92S
HESPERIA         N/A     75  23  14 NW2       29.88R
PALMDALE       CLEAR     78  27  15 SW14      29.92R
LANCASTER      CLEAR     77  38  24 SW9       29.90R
EDWARDS AFB    CLEAR     76  35  22 SW14      29.86S
DAGGETT        CLEAR     86  13   6 W20       29.80R
29 PALMS N     CLEAR     86   9   5 VRB6      29.85S
NEEDLES        CLEAR     99   5   3 W10       29.64S

$$

REGIONAL REPORTS

CITY           SKY/WX    TMP DP  RH WIND       PRES   REMARKS
SANTA BARBARA  CLEAR     60  58  92 CALM      29.84R
SANDBERG       CLEAR     71  45  39 NW21      30.06S
LAS VEGAS NV   CLEAR     94  21   7 SW12G21   29.71R
PHOENIX AZ     CLEAR     99  27   8 W12       29.71R
TIJUANA        CLEAR     61  55  82 CALM      29.91R
ENSENADA NW      N/A     66  32  28 E1        29.85R

$$

OFFSHORE ISLANDS

CITY           SKY/WX    TMP DP  RH WIND       PRES   REMARKS
CATALINA ARPT  NOT AVBL
SAN NICOLAS IS FOG       55  50  83 NW24G36   29.89R VSB 3/4

$$

MARINE AND OFFSHORE BUOY REPORTS

STATION/POSITION SKY/WX   TEMP    WIND        PRES    VSBY  SWELL
                          AIR SEA DIR/SP/G                  HT/PER/DIR
                          (F)     (DEG/KT/KT) (MB)    (MI)  (FT/S/D)
TANNER BANKS               60 63  310/ 16/ 19 1012.9          3/180/13
S CLEMENTE BASIN              65  310/ 14/ 16 1011.9          3/230/14
SAN NICOLAS IS.               60                N/A           2/200/13
SO. S. ROSA ISLA           57 57  310/ 25/ 29 1011.6          2/220/14
W. S. BARBARA CH           55 53  320/ 21/ 27 1012.0R         2/280/10
M. S. BARBARA CH           61 60  230/  2/  4 1011.1R         3/230/ 6
S. MONICA BASIN            63 66  210/  4/  6 1010.9R         3/260/ 7
S PEDRO CHANNEL               66                N/A           2/170/13
CMP PENDLETON NS              65                N/A           2/220/18
OCEANSIDE OFFSHR              65                N/A           2/200/14
TORREY PINES OTR              67                N/A           2/200/14
SAN DIEGO BAY                 71              1012.2R
POINT LOMA SOUTH              67                N/A           3/200/13

$$





USA.gov is the U.S. government's official web portal to all federal, state and local government web resources and services.